Weather History for Lincoln, NE

Change the Weather History Date:

Wednesday, October 23, 2013

  Actual Average Record
Temperature  
Mean Temperature 41 °F 50 °F  
Max Temperature 55 °F 63 °F 84 °F (1915)
Min Temperature 27 °F 38 °F 20 °F (1981)
Degree Days  
Heating Degree Days 24 15  
Month to date heating degree days 256 248  
Since 1 July heating degree days 287 346  
Cooling Degree Days 0 0  
Month to date cooling degree days 18 12  
Year to date cooling degree days 1236 1170  
Moisture  
Dew Point 33 °F    
Average Humidity 73    
Maximum Humidity 92    
Minimum Humidity 54    
Precipitation  
Precipitation 0.00 in 0.06 in 1.18 in (1932)
Month to date precipitation 2.59 1.54  
Year to date precipitation 25.03 26.14  
Snow  
Snow 0.00 in 0.10 in - ()
Month to date snowfall 0.0 0.4  
Since 1 July snowfall 0.0 0.4  
Snow Depth 0.00 in    
Sea Level Pressure  
Sea Level Pressure 30.15 in    
Wind  
Wind Speed 6 mph (NE)    
Max Wind Speed 28 mph    
Max Gust Speed 32 mph    
Visibility 10 miles    
Events      
T = Trace of Precipitation, MM = Missing Value Source: NWS Daily Summary

Daily Weather History Graph

Daily Weather History Graph

Search for Another Location

Airport:

Trip Planner

Search our weather history database for the weather conditions in past years. The results will help you decide how hot, cold, wet, or windy it might be!

Date:

Astronomy

Oct. 23, 2013 Rise Set
Actual Time 7:47 AM CDT 6:34 PM CDT
Civil Twilight 7:19 AM CDT 7:02 PM CDT
Nautical Twilight 6:47 AM CDT 7:34 PM CDT
Astronomical Twilight 6:15 AM CDT 8:06 PM CDT
Moon 10:05 PM CDT (10/23) 12:06 PM CDT (10/23)
Length of Visible Light 11h 42m
Length of Day
10h 46m
Waning Gibbous, 79% of the Moon is Illuminated
Oct 23
Waning Gibbous
Oct 26
Last Quarter
Nov 3
New
Nov 9
First Quarter
Nov 17
Full

Hourly Weather History & Observations

Time (CDT) Temp. Windchill Dew Point Humidity Pressure Visibility Wind Dir Wind Speed Gust Speed Precip Events Conditions
12:54 AM 32.0 °F - 28.9 °F 88% 30.15 in 10.0 mi Calm Calm - N/A   Clear
1:54 AM 32.0 °F - 28.9 °F 88% 30.16 in 10.0 mi Calm Calm - N/A   Clear
2:54 AM 28.9 °F - 27.0 °F 92% 30.17 in 10.0 mi Calm Calm - N/A   Clear
3:54 AM 28.9 °F - 26.1 °F 89% 30.17 in 10.0 mi Calm Calm - N/A   Clear
4:54 AM 30.0 °F - 27.0 °F 88% 30.16 in 10.0 mi Calm Calm - N/A   Partly Cloudy
5:54 AM 32.0 °F - 28.9 °F 88% 30.16 in 10.0 mi Calm Calm - N/A   Clear
6:54 AM 32.0 °F 28.7 °F 30.0 °F 92% 30.16 in 10.0 mi SSE 3.5 mph - N/A   Clear
7:54 AM 33.1 °F - 30.9 °F 92% 30.16 in 10.0 mi Calm Calm - N/A   Mostly Cloudy
8:54 AM 36.0 °F 33.3 °F 33.1 °F 89% 30.16 in 9.0 mi SSE 3.5 mph - N/A   Mostly Cloudy
9:54 AM 39.9 °F 35.8 °F 36.0 °F 86% 30.14 in 10.0 mi South 5.8 mph - N/A   Scattered Clouds
10:54 AM 46.9 °F - 36.0 °F 66% 30.12 in 10.0 mi South 12.7 mph 18.4 mph N/A   Mostly Cloudy
11:54 AM 48.0 °F - 34.0 °F 58% 30.08 in 10.0 mi SSW 12.7 mph - N/A   Mostly Cloudy
12:54 PM 50.0 °F - 36.0 °F 59% 30.07 in 10.0 mi South 11.5 mph - N/A   Overcast
1:54 PM 51.1 °F - 36.0 °F 56% 30.07 in 10.0 mi SSW 9.2 mph - N/A   Mostly Cloudy
2:54 PM 54.0 °F - 37.0 °F 53% 30.06 in 10.0 mi Variable 3.5 mph - N/A   Overcast
3:54 PM 53.1 °F - 37.9 °F 57% 30.06 in 10.0 mi ENE 3.5 mph - N/A   Overcast
4:54 PM 54.0 °F - 39.0 °F 57% 30.09 in 10.0 mi NNE 8.1 mph - N/A   Partly Cloudy
5:54 PM 46.9 °F - 39.0 °F 74% 30.13 in 10.0 mi North 15.0 mph 23.0 mph N/A   Clear
6:54 PM 43.0 °F 36.8 °F 37.9 °F 82% 30.17 in 10.0 mi North 11.5 mph - N/A   Partly Cloudy
7:54 PM 39.9 °F 34.5 °F 36.0 °F 86% 30.21 in 10.0 mi North 8.1 mph - N/A   Clear
8:54 PM 39.0 °F 34.0 °F 35.1 °F 86% 30.21 in 10.0 mi NNE 6.9 mph - N/A   Mostly Cloudy
9:54 PM 36.0 °F 29.6 °F 33.1 °F 89% 30.22 in 10.0 mi NNE 8.1 mph - N/A   Clear
10:54 PM 39.9 °F 35.1 °F 36.0 °F 86% 30.23 in 10.0 mi NNW 6.9 mph - N/A   Mostly Cloudy
11:54 PM 39.9 °F 36.7 °F 35.1 °F 83% 30.25 in 10.0 mi NNW 4.6 mph - N/A   Mostly Cloudy